Andrews, TX

1:26 PM CST on February 25, 2017 (GMT -0600)
Andrews

Weather History for KE11 - January, 2014

Change the Weather History Date:

Friday, January 10, 2014

  Actual Average (KMAF) Record (KMAF)
Temperature  
Mean Temperature 56 °F -  
Max Temperature 66 °F 55 °F 76 °F (1935)
Min Temperature 45 °F 30 °F 5 °F (1962)
Degree Days  
Heating Degree Days 10    
Growing Degree Days 6 (Base 50)    
Moisture  
Dew Point 24 °F    
Average Humidity 37    
Maximum Humidity 73    
Minimum Humidity 12    
Precipitation  
Precipitation 0.00 in - - ()
Sea Level Pressure  
Sea Level Pressure 29.86 in    
Wind  
Wind Speed 13 mph (West)    
Max Wind Speed 23 mph    
Max Gust Speed 34 mph    
Visibility 10 miles    
Events      
Averages and records for this station are not official NWS values.
T = Trace of Precipitation, MM = Missing Value Source: NWS Daily Summary

Daily Weather History Graph

Daily Weather History Graph

Search for Another Location

Airport or City:

Trip Planner

Search our weather history database for the weather conditions in past years. The results will help you decide how hot, cold, wet, or windy it might be!

Date:

Astronomy

Jan. 10, 2014 Rise Set
Actual Time 7:52 AM CST 6:03 PM CST
Civil Twilight 7:25 AM CST 6:30 PM CST
Nautical Twilight 6:55 AM CST 7:00 PM CST
Astronomical Twilight 6:25 AM CST 7:30 PM CST
Moon 2:04 PM CST (1/10) 3:07 AM CST (1/10)
Length of Visible Light 11h 04m
Length of Day
10h 11m
Waxing Gibbous, 75% of the Moon is Illuminated
Jan 10
Waxing Gibbous
Jan 15
Full
Jan 23
Last Quarter
Jan 30
New
Feb 6
First Quarter

Hourly Weather History & Observations

Time (CST) Temp. Windchill Dew Point Humidity Pressure Visibility Wind Dir Wind Speed Gust Speed Precip Events Conditions
12:15 AM 45.9 °F 40.8 °F 37.0 °F 71% 29.91 in 10.0 mi SSW 10.4 mph - N/A   Clear
12:35 AM 46.4 °F 41.9 °F 37.6 °F 71% 29.91 in 10.0 mi SSW 9.2 mph - N/A   Clear
12:55 AM 46.4 °F 41.5 °F 37.8 °F 72% 29.90 in 10.0 mi WSW 10.4 mph - N/A   Clear
1:15 AM 46.0 °F 41.4 °F 37.6 °F 72% 29.90 in 10.0 mi SW 9.2 mph - N/A   Clear
1:35 AM 46.0 °F 41.4 °F 37.9 °F 73% 29.89 in 10.0 mi SW 9.2 mph - N/A   Clear
1:55 AM 46.4 °F 41.5 °F 38.3 °F 73% 29.89 in 10.0 mi SW 10.4 mph - N/A   Scattered Clouds
2:15 AM 46.4 °F 42.4 °F 38.3 °F 73% 29.90 in 10.0 mi WSW 8.1 mph - N/A   Scattered Clouds
2:35 AM 45.9 °F 40.0 °F 36.9 °F 71% 29.91 in 10.0 mi West 12.7 mph - N/A   Overcast
2:55 AM 46.6 °F - 37.0 °F 69% 29.92 in 10.0 mi West 13.8 mph 20.7 mph N/A   Overcast
3:15 AM 50.5 °F - 36.5 °F 59% 29.92 in 10.0 mi West 12.7 mph - N/A   Overcast
3:35 AM 52.5 °F - 35.8 °F 53% 29.91 in 10.0 mi WSW 15.0 mph 19.6 mph N/A   Overcast
3:55 AM 52.7 °F - 37.8 °F 57% 29.89 in 10.0 mi SW 13.8 mph 21.9 mph N/A   Drizzle
4:15 AM 53.1 °F - 37.4 °F 55% 29.87 in 10.0 mi SW 16.1 mph - N/A   Mostly Cloudy
4:35 AM 52.2 °F - 37.4 °F 57% 29.86 in 10.0 mi SW 13.8 mph 18.4 mph N/A   Scattered Clouds
4:55 AM 52.5 °F - 36.7 °F 55% 29.86 in 10.0 mi SW 11.5 mph - N/A   Clear
5:15 AM 52.2 °F - 36.9 °F 56% 29.85 in 10.0 mi SW 10.4 mph - N/A   Clear
5:35 AM 51.8 °F - 36.5 °F 56% 29.85 in 10.0 mi WSW 10.4 mph - N/A   Clear
5:55 AM 52.0 °F - 35.6 °F 54% 29.85 in 10.0 mi WSW 11.5 mph - N/A   Clear
6:15 AM 52.7 °F - 34.7 °F 50% 29.85 in 10.0 mi WSW 12.7 mph 18.4 mph N/A   Clear
6:35 AM 51.8 °F - 35.2 °F 53% 29.85 in 10.0 mi WSW 15.0 mph - N/A   Clear
6:55 AM 50.9 °F - 35.6 °F 56% 29.85 in 10.0 mi WSW 12.7 mph - N/A   Clear
7:15 AM 49.5 °F - 35.6 °F 59% 29.85 in 10.0 mi WSW 10.4 mph - N/A   Clear
7:35 AM 48.4 °F - 35.8 °F 62% 29.86 in 10.0 mi WSW 10.4 mph - N/A   Clear
7:55 AM 46.8 °F - 36.0 °F 66% 29.87 in 10.0 mi West 9.2 mph - N/A   Clear
8:15 AM 45.9 °F 40.4 °F 36.0 °F 68% 29.87 in 10.0 mi WSW 11.5 mph - N/A   Clear
8:35 AM 46.6 °F - 36.1 °F 67% 29.88 in 10.0 mi WSW 11.5 mph - N/A   Clear
8:55 AM 46.6 °F - 36.5 °F 68% 29.89 in 10.0 mi WSW 11.5 mph 17.3 mph N/A   Clear
9:15 AM 47.5 °F - 36.9 °F 67% 29.89 in 10.0 mi WSW 12.7 mph - N/A   Clear
9:35 AM 50.0 °F - 36.7 °F 60% 29.89 in 10.0 mi WSW 12.7 mph - N/A   Clear
9:55 AM 53.2 °F - 33.6 °F 47% 29.89 in 10.0 mi West 18.4 mph 23.0 mph N/A   Clear
10:15 AM 56.1 °F - 29.8 °F 37% 29.89 in 10.0 mi West 17.3 mph 25.3 mph N/A   Clear
10:35 AM 58.1 °F - 25.0 °F 28% 29.89 in 10.0 mi West 19.6 mph 28.8 mph N/A   Clear
10:55 AM 59.5 °F - 22.1 °F 24% 29.89 in 10.0 mi West 21.9 mph 29.9 mph N/A   Clear
11:15 AM 59.7 °F - 21.6 °F 23% 29.89 in 10.0 mi West 19.6 mph 26.5 mph N/A   Clear
11:35 AM 61.2 °F - 21.6 °F 22% 29.88 in 10.0 mi West 17.3 mph 25.3 mph N/A   Clear
11:55 AM 61.7 °F - 18.7 °F 19% 29.87 in 10.0 mi WNW 21.9 mph 27.6 mph N/A   Clear
12:15 PM 63.0 °F - 17.8 °F 17% 29.86 in 10.0 mi WNW 20.7 mph 29.9 mph N/A   Clear
12:35 PM 63.1 °F - 17.2 °F 17% 29.85 in 10.0 mi West 19.6 mph 26.5 mph N/A   Clear
12:55 PM 63.9 °F - 15.4 °F 15% 29.84 in 10.0 mi West 21.9 mph 29.9 mph N/A   Clear
1:15 PM 63.7 °F - 15.8 °F 16% 29.83 in 10.0 mi WNW 23.0 mph 28.8 mph N/A   Clear
1:35 PM 63.7 °F - 14.2 °F 15% 29.81 in 10.0 mi WNW 20.7 mph 34.5 mph N/A   Clear
1:55 PM 64.6 °F - 14.5 °F 14% 29.81 in 10.0 mi WNW 23.0 mph 31.1 mph N/A   Clear
2:15 PM 64.8 °F - 13.8 °F 14% 29.81 in 10.0 mi WNW 18.4 mph 34.5 mph N/A   Clear
2:35 PM 64.8 °F - 12.7 °F 13% 29.80 in 10.0 mi West 19.6 mph 32.2 mph N/A   Clear
2:55 PM 65.7 °F - 12.2 °F 13% 29.80 in 10.0 mi West 21.9 mph 29.9 mph N/A   Clear
3:15 PM 65.7 °F - 11.8 °F 12% 29.79 in 10.0 mi WNW 19.6 mph 32.2 mph N/A   Clear
3:35 PM 66.2 °F - 11.7 °F 12% 29.79 in 10.0 mi WNW 15.0 mph 27.6 mph N/A   Clear
3:55 PM 66.6 °F - 12.9 °F 13% 29.79 in 10.0 mi West 17.3 mph 27.6 mph N/A   Clear
4:15 PM 66.4 °F - 12.0 °F 12% 29.79 in 10.0 mi West 18.4 mph 27.6 mph N/A   Clear
4:35 PM 66.2 °F - 12.2 °F 12% 29.80 in 10.0 mi West 16.1 mph 21.9 mph N/A   Clear
4:55 PM 65.5 °F - 11.8 °F 12% 29.79 in 10.0 mi West 15.0 mph 28.8 mph N/A   Clear
5:15 PM 64.8 °F - 12.2 °F 13% 29.79 in 10.0 mi West 16.1 mph 24.2 mph N/A   Clear
5:35 PM 63.7 °F - 12.6 °F 14% 29.78 in 10.0 mi West 16.1 mph 20.7 mph N/A   Clear
5:55 PM 62.2 °F - 13.1 °F 15% 29.78 in 10.0 mi West 15.0 mph 18.4 mph N/A   Clear
6:15 PM 60.3 °F - 13.1 °F 16% 29.78 in 10.0 mi West 11.5 mph - N/A   Clear
6:35 PM 58.8 °F - 13.1 °F 17% 29.79 in 10.0 mi WSW 6.9 mph - N/A   Clear
6:55 PM 56.7 °F - 14.0 °F 19% 29.79 in 10.0 mi WSW 8.1 mph - N/A   Clear
7:15 PM 55.6 °F - 14.4 °F 20% 29.80 in 10.0 mi WSW 10.4 mph - N/A   Clear
7:35 PM 54.0 °F - 14.7 °F 21% 29.81 in 10.0 mi WSW 11.5 mph - N/A   Clear
7:55 PM 52.7 °F - 14.9 °F 22% 29.82 in 10.0 mi West 12.7 mph - N/A   Clear
8:15 PM 54.0 °F - 14.7 °F 21% 29.83 in 10.0 mi West 15.0 mph 20.7 mph N/A   Clear
8:35 PM 55.4 °F - 14.2 °F 20% 29.85 in 10.0 mi West 13.8 mph 19.6 mph N/A   Clear
8:55 PM 53.8 °F - 14.2 °F 21% 29.86 in 10.0 mi West 11.5 mph 17.3 mph N/A   Clear
9:15 PM 52.3 °F - 14.4 °F 22% 29.87 in 10.0 mi West 11.5 mph 16.1 mph N/A   Clear
9:35 PM 50.5 °F - 14.5 °F 24% 29.88 in 10.0 mi West 9.2 mph 16.1 mph N/A   Clear
9:55 PM 50.0 °F - 14.9 °F 25% 29.89 in 10.0 mi West 11.5 mph - N/A   Clear
10:15 PM 49.8 °F - 14.7 °F 25% 29.90 in 10.0 mi West 9.2 mph - N/A   Clear
10:35 PM 49.5 °F - 14.9 °F 25% 29.91 in 10.0 mi West 10.4 mph - N/A   Clear
10:55 PM 49.1 °F - 14.9 °F 26% 29.92 in 10.0 mi WNW 11.5 mph - N/A   Clear
11:15 PM 46.2 °F 39.8 °F 15.6 °F 29% 29.96 in 10.0 mi NNW 15.0 mph 25.3 mph N/A   Clear
11:35 PM 45.9 °F 40.4 °F 16.3 °F 31% 29.97 in 10.0 mi NNW 11.5 mph - N/A   Clear
11:55 PM 48.2 °F - 16.2 °F 28% 29.96 in 10.0 mi WNW 10.4 mph - N/A   Clear